Погода в Матавле

Россия / Республика Башкортостан     56°04′14″N   57°34′45″E
темп.,
°C
ветер,
м/с
пор.,
м/с
влажн.,
%
обл.,
%
осадки,
мм/ч
давл.,
гПа
погр.,
м
16 июня, ср
ср1623:00+16ююз11965 0.0 101611
02:00+15юв119584 0.0 101611
05:00+15юв119312 0.0 101611
08:00+21юв127116 0.0 1015186
11:00+28ююв243889 0.0 10131128
14:00+29ю37328 0.0 10122042
17:00+29юз51031100 0.0 10101936
20:00+24ююз266881 0.0 1010180
17 июня, чт
чт1723:00+20ю51376100 0.3 1010673
02:00+17юз41387100 0.3 1010614
05:00+15ююз21094100 0.5 1008309
08:00+18юз38857 0.3 1007411
11:00+22з4669100 0.7 10061138
14:00+19сз459274 4.2 1007704
17:00+16ссз41189100 5.5 1009539
20:00+17зсз38710 0.0 1010795
18 июня, пт
пт1823:00+16ссз495498 0.1 1012935
02:00+11ссз312735 0.0 1013514
05:00+8сз27875 0.0 1015202
08:00+13ссз59540 0.0 1017813
11:00+17с57425 0.0 10181711
14:00+19ссз573424 0.0 10192521
17:00+18ссз67345 0.0 10202414
20:00+15ссз48465 0.0 1021738
19 июня, сб
сб1923:00+10з11645 0.0 102211
02:00+9зюз2276100 0.0 102255
05:00+11з247797 0.0 1022162
08:00+14з386882 0.0 1022414
11:00+20зсз6104513 0.0 10201488
14:00+22зсз61046100 0.0 10192074
17:00+17сз41186100 1.4 1018416
20:00+17зсз31191100 0.9 1018364
20 июня, вс
вс2023:00+16з1194100 1.2 101814
02:00+14зюз229713 0.3 101846
05:00+14з24985 0.3 101886
08:00+18з258932 0.0 1018221
11:00+25сз485219 0.0 10181305
14:00+27ссз6104654 0.0 10172230
17:00+23зсз497089 0.2 1018646
20:00+22сз38830 0.7 1019290